This is the latest recevied weather packets stored in our database for station/object NQ9F. If no packets are shown the sender has not sent any weather packets the latest 10 day(s).
| Time | Temp. | Humidity | Pressure | Rain* | Wind** | Luminosity | Snow |
|---|---|---|---|---|---|---|---|
| 1777856559 | 22.78° C | 42% | 1015.1 hPa | 0 mm | - | 12 W/m² | - |
| 1777856256 | 22.78° C | 41% | 1015.1 hPa | 0 mm | - | 20 W/m² | - |
| 1777855953 | 23.33° C | 41% | 1014.9 hPa | 0 mm | - | 22 W/m² | - |
| 1777855651 | 23.33° C | 40% | 1014.9 hPa | 0 mm | - | 23 W/m² | - |
| 1777855347 | 23.33° C | 40% | 1014.9 hPa | 0 mm | - | 29 W/m² | - |
| 1777855044 | 23.89° C | 39% | 1014.9 hPa | 0 mm | - | 30 W/m² | - |
| 1777854741 | 23.89° C | 39% | 1015.1 hPa | 0 mm | - | 35 W/m² | - |
| 1777854438 | 24.44° C | 38% | 1015 hPa | 0 mm | - | 50 W/m² | - |
| 1777854134 | 25° C | 36% | 1014.9 hPa | 0 mm | - | 100 W/m² | - |
| 1777853833 | 25° C | 36% | 1015.1 hPa | 0 mm | - | 112 W/m² | - |
| 1777853529 | 25° C | 36% | 1015 hPa | 0 mm | - | 127 W/m² | - |
| 1777853226 | 25.56° C | 37% | 1015.3 hPa | 0 mm | - | 139 W/m² | - |
| 1777852923 | 25.56° C | 35% | 1015.4 hPa | 0 mm | - | 171 W/m² | - |
| 1777852621 | 25.56° C | 35% | 1015.1 hPa | 0 mm | - | 169 W/m² | - |
| 1777852318 | 25.56° C | 35% | 1015.3 hPa | 0 mm | - | 195 W/m² | - |
| 1777852015 | 26.11° C | 35% | 1015.4 hPa | 0 mm | - | 214 W/m² | - |
| 1777851714 | 25.56° C | 34% | 1015.3 hPa | 0 mm | - | 233 W/m² | - |
| 1777851410 | 26.11° C | 34% | 1015.4 hPa | 0 mm | - | 255 W/m² | - |
| 1777851106 | 26.11° C | 34% | 1015.1 hPa | 0 mm | - | 271 W/m² | - |
| 1777850803 | 26.11° C | 33% | 1015.4 hPa | 0 mm | - | 299 W/m² | - |
| 1777850500 | 26.11° C | 34% | 1015.4 hPa | 0 mm | - | 317 W/m² | - |
| 1777850198 | 26.11° C | 35% | 1015.3 hPa | 0 mm | - | 344 W/m² | - |
| 1777849894 | 26.11° C | 35% | 1015.5 hPa | 0 mm | - | 369 W/m² | - |
| 1777849591 | 26.11° C | 33% | 1015.9 hPa | 0 mm | - | 394 W/m² | - |
| 1777849288 | 26.11° C | 34% | 1015.8 hPa | 0 mm | - | 421 W/m² | - |
* Rain latest hour (hover to see other rain measurements)
** Current wind speed in m/s (hover to see current wind gust speed)